EW3394 Weather Reports


time (UTC)temp
C
wind
direction
speed
KPH
gust
KPH
rain 1hr
cm
rain 24hr
cm
rain mn
cm
humidity
%
barometer
mb
20260506201505 16 360 4.8 11.3 0.00 0.74 0.74 93 1004.6
20260506200007 16 129 3.2 14.5 0.00 0.74 0.74 94 1004.8
20260506194510 16 360 0.0 14.5 0.05 0.74 0.74 94 1004.9
20260506193015 16 188 3.2 14.5 0.15 0.74 0.74 94 1005.0
20260506191504 16 151 3.2 12.9 0.18 0.74 0.74 94 1005.2
20260506190008 16 248 1.6 11.3 0.20 0.74 0.74 94 1005.3
20260506184510 16 360 1.6 19.3 0.18 0.69 0.69 94 1005.2
20260506183012 16 148 3.2 14.5 0.08 0.58 0.58 93 1005.4
20260506181510 16 235 1.6 17.7 0.08 0.56 0.56 93 1005.5
20260506180006 16 136 1.6 9.7 0.05 0.53 0.53 94 1005.7
20260506174510 16 360 1.6 12.9 0.08 0.51 0.51 94 1005.6
20260506173021 16 88 0.0 12.9 0.18 0.51 0.51 94 1005.7
20260506171518 16 161 1.6 9.7 0.18 0.48 0.48 93 1005.9
20260506170016 16 237 1.6 14.5 0.23 0.48 0.48 94 1005.8
20260506164514 16 104 3.2 16.1 0.23 0.43 0.43 93 1006.2
20260506163012 16 229 3.2 12.9 0.20 0.33 0.33 92 1006.6
20260506161514 16 148 3.2 12.9 0.23 0.30 0.30 92 1006.7
20260506160031 16 195 1.6 8.0 0.23 0.25 0.25 92 1006.9
20260506154523 17 360 1.6 16.1 0.20 0.20 0.20 91 1007.2
20260506153010 17 155 1.6 6.4 0.13 0.13 0.13 90 1007.1
20260506151517 17 195 0.0 9.7 0.08 0.08 0.08 88 1007.1
20260506150020 17 163 1.6 14.5 0.03 0.03 0.03 86 1007.2
20260506144517 17 169 1.6 8.0 0.00 0.00 0.00 84 1007.3
20260506143016 18 200 1.6 14.5 0.00 0.00 0.00 81 1007.6
20260506141513 18 360 1.6 12.9 0.00 0.00 0.00 78 1007.6
20260506140016 19 117 3.2 14.5 0.00 0.00 0.00 76 1007.5
20260506134524 19 209 3.2 12.9 0.00 0.00 0.00 76 1007.3
20260506133020 18 360 3.2 25.7 0.00 0.00 0.00 78 1007.0
20260506131537 18 142 3.2 20.9 0.00 0.00 0.00 77 1007.1
20260506130019 18 360 3.2 14.5 0.00 0.00 0.00 79 1007.1
20260506124520 18 360 1.6 12.9 0.00 0.00 0.00 79 1007.1
20260506123022 17 196 3.2 19.3 0.00 0.00 0.00 80 1007.5
20260506121521 17 179 1.6 14.5 0.00 0.00 0.00 80 1007.8
20260506120021 17 192 3.2 11.3 0.00 0.00 0.00 81 1007.7
20260506114521 16 123 3.2 17.7 0.00 0.00 0.00 83 1007.5
20260506113024 15 167 3.2 14.5 0.00 0.00 0.00 87 1007.4
20260506111506 13 101 1.6 8.0 0.00 0.00 0.00 93 1007.2
20260506110007 12 360 0.0 0.0 0.00 0.00 0.00 93 1007.3
20260506104510 11 341 0.0 0.0 0.00 0.00 0.00 93 1007.2
20260506103031 11 360 0.0 0.0 0.00 0.00 0.00 93 1007.2
20260506101506 11 360 0.0 0.0 0.00 0.00 0.00 92 1007.4
20260506100010 11 340 0.0 0.0 0.00 0.00 0.00 92 1007.3
20260506094512 10 342 0.0 0.0 0.00 0.00 0.00 91 1007.2
20260506093020 11 342 0.0 0.0 0.00 0.00 0.00 90 1007.2
20260506091518 11 342 0.0 0.0 0.00 0.00 0.00 90 1007.2
20260506090026 11 342 0.0 0.0 0.00 0.00 0.00 88 1007.3
20260506084510 11 342 0.0 0.0 0.00 0.00 0.00 88 1007.6
20260506083014 12 342 0.0 3.2 0.00 0.00 0.00 86 1007.7
20260506081515 12 342 0.0 3.2 0.00 0.00 0.00 84 1007.7
20260506073012 14 360 0.0 4.8 0.00 0.00 0.00 79 1007.8
20260506071514 15 360 0.0 6.4 0.00 0.00 0.00 77 1008.1
20260506061515 15 360 1.6 6.4 0.00 0.00 0.00 79 1008.5
20260506044522 18 360 4.8 12.9 0.00 0.00 0.00 72 1008.3
20260506043024 21 76 0.0 4.8 0.00 0.00 0.00 56 1008.2
20260506041527 21 276 0.0 11.3 0.00 0.00 0.00 50 1007.7
20260506040027 21 270 0.0 6.4 0.00 0.00 0.00 51 1007.4
20260506034519 21 274 0.0 4.8 0.00 0.00 0.00 51 1007.1
20260506033023 22 291 1.6 9.7 0.00 0.00 0.00 49 1007.0
20260506031526 21 167 1.6 12.9 0.00 0.00 0.00 47 1007.0
20260506030033 20 238 3.2 14.5 0.00 0.00 0.00 52 1006.9
20260506024540 17 282 0.0 4.8 0.00 0.00 0.00 72 1006.9
20260506023021 18 51 0.0 1.6 0.00 0.00 0.00 73 1007.1
20260506021523 18 53 0.0 1.6 0.00 0.00 0.00 70 1007.2
20260506020024 19 51 0.0 4.8 0.00 0.00 0.00 68 1007.2
20260506014532 19 352 0.0 3.2 0.00 0.00 0.00 67 1007.2
20260506013028 18 360 0.0 6.4 0.00 0.00 0.00 70 1006.9
20260506011523 18 360 0.0 3.2 0.00 0.00 0.00 69 1006.8
20260506010008 18 360 0.0 3.2 0.00 0.00 0.00 67 1006.8
20260506004507 19 360 0.0 3.2 0.00 0.00 0.00 65 1006.7
20260506003016 19 360 1.6 3.2 0.00 0.00 0.00 64 1006.5
20260506001522 20 360 0.0 3.2 0.00 0.00 0.00 62 1006.4
20260506000024 21 32 0.0 3.2 0.00 0.00 0.00 59 1006.3
20260505234506 21 30 0.0 3.2 0.00 0.00 0.00 56 1006.2
20260505233008 22 13 1.6 6.4 0.00 0.00 0.00 53 1005.9
20260505231515 23 76 0.0 11.3 0.00 0.00 0.00 48 1005.9
20260505230043 25 144 0.0 6.4 0.00 0.00 0.00 42 1005.6
20260505224525 25 244 0.0 12.9 0.00 0.00 0.00 37 1005.4
20260505223008 26 190 1.6 8.0 0.00 0.00 0.00 35 1005.3
20260505221514 26 204 4.8 14.5 0.00 0.00 0.00 34 1004.8
20260505220024 26 32 6.4 22.5 0.00 0.00 0.00 33 1004.6
20260505214526 26 299 3.2 29.0 0.00 0.00 0.00 33 1004.3
20260505213023 27 235 9.7 24.1 0.00 0.00 0.00 32 1004.1
20260505211514 27 175 3.2 16.1 0.00 0.00 0.00 35 1003.9
20260505210015 27 194 9.7 29.0 0.00 0.00 0.00 32 1003.7
20260505204519 28 229 11.3 25.7 0.00 0.00 0.00 32 1003.7
20260505203026 28 284 8.0 20.9 0.00 0.00 0.00 34 1004.0